Weather History for Chesapeake, VA

Change the Weather History Date:

Thursday, May 2, 2013

  Actual Average (KORF) Record (KORF)
Temperature  
Mean Temperature 60 °F 63 °F  
Max Temperature 66 °F 72 °F 92 °F (1898)
Min Temperature 48 °F 54 °F 43 °F (1988)
Degree Days  
Heating Degree Days 6 4  
Month to date heating degree days 8  
Since 1 July heating degree days 3308  
Cooling Degree Days 0 2  
Month to date cooling degree days 4  
Year to date cooling degree days 48  
Growing Degree Days 10 (Base 50)    
Moisture  
Dew Point 51 °F    
Average Humidity 77    
Maximum Humidity 94    
Minimum Humidity 60    
Precipitation  
Precipitation 0.00 in 0.10 in 1.48 in (1999)
Month to date precipitation 0.20  
Year to date precipitation 13.81  
Snow  
Snow 0.00 in 0.00 in 0.00 in (2002)
Month to date snowfall 0.0  
Since 1 July snowfall 5.8  
Snow Depth -    
Sea Level Pressure  
Sea Level Pressure 30.34 in    
Wind  
Wind Speed 7 mph (NNE)    
Max Wind Speed 17 mph    
Max Gust Speed 22 mph    
Visibility 9 miles    
Events Rain    
T = Trace of Precipitation, MM = Missing Value Source: NWS Daily Summary

Daily Weather History Graph

Daily Weather History Graph

Search for Another Location

Airport:

Trip Planner

Search our weather history database for the weather conditions in past years. The results will help you decide how hot, cold, wet, or windy it might be!

Date:

Astronomy

May. 02, 2013 Rise Set
Actual Time 6:10 AM EDT 7:54 PM EDT
Civil Twilight 5:42 AM EDT 8:22 PM EDT
Nautical Twilight 5:08 AM EDT 8:56 PM EDT
Astronomical Twilight 4:33 AM EDT 9:32 PM EDT
Moon 1:44 AM EDT (5/2) 12:53 PM EDT (5/2)
Length of Visible Light 14h 40m
Length of Day
13h 44m
Waning Gibbous, 48% of the Moon is Illuminated
May 2
Waning Gibbous
May 9
New
May 18
First Quarter
May 25
Full
May 31
Last Quarter

Hourly Weather History & Observations

Time (EDT) Temp. Dew Point Humidity Pressure Visibility Wind Dir Wind Speed Gust Speed Precip Events Conditions
12:15 AM 55.4 °F 53.6 °F 94% 30.36 in 7.0 mi NNE 5.8 mph - N/A   Overcast
12:35 AM 55.4 °F 53.6 °F 94% 30.36 in 7.0 mi Calm Calm - N/A   Overcast
12:55 AM 55.4 °F 53.6 °F 94% 30.35 in 7.0 mi NNE 5.8 mph - N/A   Overcast
1:15 AM 55.4 °F 53.6 °F 94% 30.35 in 7.0 mi NNE 4.6 mph - N/A   Overcast
1:35 AM 55.4 °F 53.6 °F 94% 30.34 in 7.0 mi NNE 4.6 mph - N/A   Overcast
1:55 AM 55.4 °F 53.6 °F 94% 30.34 in 7.0 mi NNE 5.8 mph - N/A   Overcast
2:15 AM 55.4 °F 53.6 °F 94% 30.34 in 10.0 mi NNE 5.8 mph - N/A   Overcast
2:35 AM 55.4 °F 53.6 °F 94% 30.34 in 10.0 mi North 4.6 mph - N/A   Overcast
2:55 AM 55.4 °F 53.6 °F 94% 30.34 in 7.0 mi North 3.5 mph - N/A   Overcast
3:15 AM 55.4 °F 53.6 °F 94% 30.34 in 7.0 mi North 3.5 mph - N/A   Overcast
3:35 AM 55.4 °F 53.6 °F 94% 30.34 in 10.0 mi North 5.8 mph - N/A   Overcast
3:55 AM 55.4 °F 53.6 °F 94% 30.34 in 7.0 mi NNE 5.8 mph - N/A   Overcast
4:15 AM 55.4 °F 53.6 °F 94% 30.34 in 7.0 mi North 4.6 mph - N/A Rain Light Rain
4:35 AM 55.4 °F 53.6 °F 94% 30.34 in 7.0 mi North 5.8 mph - N/A Rain Rain
4:55 AM 55.4 °F 53.6 °F 94% 30.34 in 7.0 mi North 4.6 mph - N/A   Overcast
5:15 AM 55.4 °F 53.6 °F 94% 30.34 in 7.0 mi North 5.8 mph - N/A   Overcast
5:35 AM 55.4 °F 53.6 °F 94% 30.34 in 7.0 mi North 5.8 mph - N/A   Overcast
5:55 AM 55.4 °F 53.6 °F 94% 30.34 in 10.0 mi NNE 5.8 mph - N/A   Overcast
6:15 AM 55.4 °F 53.6 °F 94% 30.34 in 10.0 mi North 4.6 mph - N/A   Overcast
6:35 AM 55.4 °F 53.6 °F 94% 30.34 in 10.0 mi NNE 5.8 mph - N/A   Overcast
6:55 AM 55.4 °F 53.6 °F 94% 30.34 in 10.0 mi NNE 5.8 mph - N/A   Overcast
7:15 AM 55.4 °F 53.6 °F 94% 30.35 in 10.0 mi NNE 8.1 mph - N/A   Overcast
7:35 AM 55.4 °F 51.8 °F 88% 30.35 in 10.0 mi NNE 11.5 mph 17.3 mph N/A   Overcast
7:55 AM 57.2 °F 51.8 °F 82% 30.35 in 10.0 mi NNE 9.2 mph 16.1 mph N/A   Overcast
8:15 AM 57.2 °F 51.8 °F 82% 30.35 in 10.0 mi NNE 8.1 mph - N/A   Overcast
8:35 AM 57.2 °F 51.8 °F 82% 30.36 in 10.0 mi NNE 11.5 mph - N/A   Mostly Cloudy
8:55 AM 59.0 °F 51.8 °F 77% 30.36 in 10.0 mi NE 12.7 mph - N/A   Mostly Cloudy
9:15 AM 60.8 °F 51.8 °F 72% 30.36 in 10.0 mi NNE 9.2 mph - N/A   Overcast
9:35 AM 60.8 °F 51.8 °F 72% 30.36 in 10.0 mi NNE 9.2 mph - N/A   Overcast
9:55 AM 60.8 °F 51.8 °F 72% 30.37 in 10.0 mi NE 10.4 mph - N/A   Scattered Clouds
10:15 AM 62.6 °F 51.8 °F 68% 30.37 in 10.0 mi NNE 10.4 mph 17.3 mph N/A   Clear
10:35 AM 62.6 °F 51.8 °F 68% 30.37 in 10.0 mi NNE 12.7 mph 18.4 mph N/A   Clear
10:55 AM 62.6 °F 51.8 °F 68% 30.38 in 10.0 mi North 11.5 mph - N/A   Clear
11:15 AM 64.4 °F 51.8 °F 64% 30.38 in 10.0 mi NNE 15.0 mph 18.4 mph N/A   Clear
11:35 AM 64.4 °F 51.8 °F 64% 30.38 in 10.0 mi NE 16.1 mph 21.9 mph N/A   Scattered Clouds
11:55 AM 64.4 °F 51.8 °F 64% 30.38 in 10.0 mi NNE 13.8 mph 19.6 mph N/A   Clear
12:15 PM 64.4 °F 51.8 °F 64% 30.37 in 10.0 mi NNE 16.1 mph 19.6 mph N/A   Scattered Clouds
12:35 PM 66.2 °F 51.8 °F 60% 30.36 in 10.0 mi NNE 12.7 mph - N/A   Scattered Clouds
12:55 PM 64.4 °F 51.8 °F 64% 30.36 in 10.0 mi NE 12.7 mph 18.4 mph N/A   Scattered Clouds
1:15 PM 66.2 °F 51.8 °F 60% 30.35 in 10.0 mi NNE 10.4 mph 17.3 mph N/A   Scattered Clouds
1:35 PM 66.2 °F 51.8 °F 60% 30.35 in 10.0 mi NNE 16.1 mph 21.9 mph N/A   Scattered Clouds
1:55 PM 66.2 °F 51.8 °F 60% 30.36 in 10.0 mi NNE 12.7 mph 19.6 mph N/A   Mostly Cloudy
2:15 PM 66.2 °F 51.8 °F 60% 30.36 in 10.0 mi NNE 12.7 mph 18.4 mph N/A   Mostly Cloudy
2:35 PM 66.2 °F 51.8 °F 60% 30.35 in 10.0 mi NNE 10.4 mph 16.1 mph N/A   Mostly Cloudy
2:55 PM 66.2 °F 51.8 °F 60% 30.35 in 10.0 mi NNE 11.5 mph 20.7 mph N/A   Mostly Cloudy
3:15 PM 66.2 °F 51.8 °F 60% 30.35 in 10.0 mi NNE 12.7 mph - N/A   Mostly Cloudy
3:35 PM 66.2 °F 51.8 °F 60% 30.34 in 10.0 mi NE 15.0 mph 19.6 mph N/A   Overcast
3:55 PM 64.4 °F 51.8 °F 64% 30.34 in 10.0 mi NNE 13.8 mph 20.7 mph N/A   Overcast
4:15 PM 64.4 °F 51.8 °F 64% 30.34 in 10.0 mi NNE 13.8 mph 20.7 mph N/A   Overcast
4:35 PM 64.4 °F 51.8 °F 64% 30.33 in 10.0 mi NE 16.1 mph - N/A   Overcast
4:55 PM 64.4 °F 51.8 °F 64% 30.34 in 10.0 mi NE 13.8 mph - N/A   Mostly Cloudy
5:15 PM 64.4 °F 51.8 °F 64% 30.34 in 10.0 mi NE 15.0 mph 19.6 mph N/A   Mostly Cloudy
5:35 PM 62.6 °F 50.0 °F 63% 30.33 in 10.0 mi NE 17.3 mph - N/A   Mostly Cloudy
5:55 PM 62.6 °F 50.0 °F 63% 30.33 in 10.0 mi ENE 12.7 mph - N/A   Overcast
6:15 PM 62.6 °F 50.0 °F 63% 30.33 in 10.0 mi NE 12.7 mph - N/A   Overcast
6:35 PM 62.6 °F 50.0 °F 63% 30.32 in 10.0 mi NE 15.0 mph 19.6 mph N/A   Overcast
6:55 PM 60.8 °F 48.2 °F 63% 30.31 in 10.0 mi NE 12.7 mph - N/A   Mostly Cloudy
7:15 PM 59.0 °F 48.2 °F 67% 30.31 in 10.0 mi ENE 9.2 mph - N/A   Scattered Clouds
7:35 PM 59.0 °F 48.2 °F 67% 30.31 in 10.0 mi NE 9.2 mph - N/A   Clear
7:55 PM 57.2 °F 50.0 °F 77% 30.31 in 10.0 mi NE 5.8 mph - N/A   Clear
8:15 PM 57.2 °F 48.2 °F 72% 30.31 in 10.0 mi NE 9.2 mph - N/A   Clear
8:35 PM 55.4 °F 48.2 °F 77% 30.31 in 10.0 mi ENE 6.9 mph - N/A   Clear
8:55 PM 55.4 °F 48.2 °F 77% 30.31 in 10.0 mi NE 6.9 mph - N/A   Clear
9:15 PM 53.6 °F 48.2 °F 82% 30.31 in 10.0 mi NE 4.6 mph - N/A   Clear
9:35 PM 53.6 °F 48.2 °F 82% 30.31 in 10.0 mi NE 3.5 mph - N/A   Clear
9:55 PM 53.6 °F 48.2 °F 82% 30.31 in 10.0 mi NNE 4.6 mph - N/A   Clear
10:15 PM 53.6 °F 48.2 °F 82% 30.32 in 10.0 mi NE 3.5 mph - N/A   Clear
10:35 PM 53.6 °F 48.2 °F 82% 30.31 in 10.0 mi Calm Calm - N/A   Clear
10:55 PM 53.6 °F 48.2 °F 82% 30.31 in 10.0 mi NNE 3.5 mph - N/A   Clear
11:15 PM 53.6 °F 48.2 °F 82% 30.30 in 10.0 mi NNE 3.5 mph - N/A   Clear
11:35 PM 53.6 °F 48.2 °F 82% 30.30 in 10.0 mi Calm Calm - N/A   Clear
11:55 PM 48.2 °F 46.4 °F 93% 30.31 in 10.0 mi Calm Calm - N/A   Clear